Location: ????????
(41.2031°N, 22.5756°E)
Time: 05:56:37
(UTC+00:00)

ERS-2 - Pass Details

Date: 01 December 2020
Orbit: 492 x 498 km, 98.6° (Epoch: 20 January)

Event Time Altitude Azimuth Distance (km) Brightness Sun altitude
Exits shadow 16:36:35 11° 7° (N) 1,659 4.6 -17.4°
Maximum altitude 16:40:05 64° 287° (WNW) 557 2.5 -18.1°
Drops below altitude 10° 16:43:42 10° 205° (SSW) 1,695 5.3 -18.7°
Sets 16:45:46 0° 202° (SSW) 2,572 6.2 -19.1°
